www.pogodaiklimat.ru

Погода и климат >> Архив погоды >> Россия >> Якутия >> Шелагонцы


ПОГОДА в Шелагонцах

  • Прогноз погоды в Шелагонцах
  • Монитор погоды в Шелагонцах
  • Климат города

АРХИВ ПОГОДЫ в Шелагонцах

Время (UTC), дата Ветер
(напр.,м/с)
 
Видим.   Явления Облачность Т
(С)
Тd
(С)
f
(%)
Тe
(С)
Тes
(С)
Комфортность P
(гПа)
Po
(гПа)
Тmin
(С)
Tmax
(С)
R
(мм)
R24
(мм)
S
(см)
12 11.12 Ю 1 50 км {снег} 8/0
[As trans Cs]
-27.1 -28.8 85 -31 -31 опасность
обморожения
1037.2 1003.8 -26.0 0.0
15 11.12 ЮВ 1 50 км 6/0
[Cs]
-28.5 -30.4 84 -32 -32 опасность
обморожения
1035.7 1002.1
18 11.12 В 1 20 км слабый снег 9/0
[Cs]
-28.3 -30.0 85 -32 -32 опасность
обморожения
1035.0 1001.6
21 11.12 В 5 50 км {снег, метель} 4/0
[Ci fib]
-28.4 -30.8 80 -41 -41 опасность
обморожения
1033.2 999.9
00 12.12 В 3 50 км {снег, метель} 4/0
[Ci fib]
-30.9 -33.2 80 -41 -41 опасность
обморожения
1032.2 998.5 -31.3 0.0 42
03 12.12 нст 5 20 км слабый снег {метель} 9/0
[As trans Cs]
-31.1 -33.4 80 -44 -44 опасность
обморожения
1030.3 996.7
06 12.12 В 5 2000 м сильный снег {метель} 10/0
[As op]
-31.1 -33.4 80 -44 -44 опасность
обморожения
1029.4 995.8
09 12.12 В 3 10 км снег {метель} 10/0
[As op]
-31.2 -33.6 79 -41 -41 опасность
обморожения
1028.8 995.2
12 12.12 В 5 10 км снег {метель} 9/0
[As trans]
-31.4 -33.6 81 -44 -44 опасность
обморожения
1028.6 995.0 -30.6 0.7
15 12.12 ЮВ 1 20 км снег {метель} 9/0
[As trans]
-32.7 -35.1 79 -37 -37 опасность
обморожения
1028.5 994.6
18 12.12 В 3 10 км снег {метель} 9/0
[As trans Cs]
-33.3 -35.6 80 -44 -44 опасность
обморожения
1028.8 994.9
21 12.12 ЮВ 1 20 км слабый снег {метель} 10/0
[Cs]
-34.1 -36.5 79 -39 -39 опасность
обморожения
1029.5 995.4
00 13.12 В 1 20 км слабый снег {метель} 10/0
[Cs]
-34.8 -36.5 84 -39 -39 опасность
обморожения
1029.5 995.3 -34.9 0.5 45
03 13.12 штиль 0 50 км {снег} 8/0
[Cc]
-39.5 -41.7 79 -40 -40 опасность
обморожения
1030.4 995.4 -39.5
06 13.12 штиль 0 50 км {снег} 8/0
[Ci fib]
-39.1 -41.2 80 -39 -39 опасность
обморожения
1030.4 995.6
09 13.12 штиль 0 50 км 10/0
[Cc]
-40.9 -43.2 78 -41 -41 опасность
обморожения
1031.3 996.2
12 13.12 штиль 0 50 км 6/0
[Ci fib]
-42.7 -45.0 78 -43 -43 опасность
обморожения
1032.1 996.7 -39.1 0.0
15 13.12 штиль 0 20 км слабый снег 8/0
[Cs]
-43.3 -45.7 77 -43 -43 опасность
обморожения
1033.0 997.5
18 13.12 штиль 0 50 км {снег} 10/0
[Cs]
-44.3 -46.4 79 -44 -44 опасность
обморожения
1033.4 997.7
21 13.12 штиль 0 50 км 6/0
[Cs]
-44.3 -46.4 79 -44 -44 опасность
обморожения
1034.3 998.6
00 14.12 штиль 0 50 км 6/0
[Cs]
-43.8 -45.7 81 -44 -44 опасность
обморожения
1034.4 998.7 -44.5 0.0 42
03 14.12 штиль 0 20 км слабый снег 10/0
[As trans Cs]
-43.4 -45.7 78 -43 -43 опасность
обморожения
1034.6 999.1
06 14.12 штиль 0 4000 м сильный снег 10/0
[As op]
-41.0 -43.2 79 -41 -41 опасность
обморожения
1034.7 999.5
09 14.12 штиль 0 20 км слабый снег 10/0
[As trans Cs]
-40.2 -42.2 81 -40 -40 опасность
обморожения
1034.9 999.8
12 14.12 штиль 0 20 км слабый снег 9/0
[As trans Cs]
-40.1 -42.2 80 -40 -40 опасность
обморожения
1035.0 999.9 -40.1 0.4
15 14.12 штиль 0 50 км {снег} 6/0
[Cs]
-41.9 -43.8 82 -42 -42 опасность
обморожения
1035.2 999.8
18 14.12 штиль 0 20 км слабый снег 8/0
[Cs]
-40.4 -42.7 78 -40 -40 опасность
обморожения
1034.9 999.8
21 14.12 штиль 0 20 км слабый снег 10/0
[Cs]
-42.0 -44.4 77 -42 -42 опасность
обморожения
1034.5 999.1
00 15.12 штиль 0 20 км слабый снег 10/0
[As trans Cs]
-41.0 -43.2 79 -41 -41 опасность
обморожения
1033.9 998.7 -42.4 0.2 47
03 15.12 З 1 50 км {снег} 10/0
[Cc]
-42.3 -44.4 80 -48 -48 опасность
обморожения
1033.4 998.0
06 15.12 З 1 50 км {снег} 3/0
[Cc]
-44.3 -46.4 79 -50 -50 опасность
обморожения
1033.3 997.6
09 15.12 штиль 0 50 км ясно -46.5 -49.0 75 -47 -47 опасность
обморожения
1032.9 996.9
12 15.12 штиль 0 50 км ясно -47.4 -49.0 83 -47 -47 опасность
обморожения
1032.3 996.3 -42.3 0.0
15 15.12 штиль 0 50 км ясно -48.0 -50.0 80 -48 -48 опасность
обморожения
1032.0 995.8
18 15.12 штиль 0 50 км ясно -48.0 -50.0 80 -48 -48 опасность
обморожения
1031.2 995.0
21 15.12 штиль 0 50 км ясно -48.3 -50.0 82 -48 -48 опасность
обморожения
1031.2 995.0
00 16.12 штиль 0 50 км ясно -48.7 -51.2 75 -49 -49 опасность
обморожения
1031.7 995.9 -48.4 43
03 16.12 штиль 0 50 км ясно -47.9 -50.0 79 -48 -48 опасность
обморожения
1032.0 995.8
06 16.12 штиль 0 50 км ясно -47.5 -50.0 75 -48 -48 опасность
обморожения
1032.5 996.3
09 16.12 штиль 0 50 км 1/0
[Cc]
-47.2 -49.0 82 -47 -47 опасность
обморожения
1033.3 997.3
12 16.12 Ю 1 50 км 1/0
[Cc]
-47.5 -50.0 75 -54 -54 опасность
обморожения
1034.1 997.8 -47.2
15 16.12 штиль 0 50 км 3/0
[Cc]
-47.4 -49.0 83 -47 -47 опасность
обморожения
1034.8 998.6
18 16.12 Ю 1 50 км 3/0
[Cc]
-47.1 -49.0 81 -53 -53 опасность
обморожения
1035.2 999.0
21 16.12 штиль 0 50 км ясно -46.9 -49.0 79 -47 -47 опасность
обморожения
1035.6 999.4
00 17.12 Ю 1 50 км ясно -46.1 -48.1 80 -52 -52 опасность
обморожения
1035.6 999.6 -47.8 46
03 17.12 В 1 50 км ясно -45.5 -47.2 83 -51 -51 опасность
обморожения
1035.6 999.6
06 17.12 Ю 1 50 км ясно -44.6 -46.4 82 -50 -50 опасность
обморожения
1034.9 999.1
09 17.12 штиль 0 50 км 1/0
[Cc]
-44.8 -47.2 77 -45 -45 опасность
обморожения
1033.6 997.8
12 17.12 штиль 0 50 км ясно -45.7 -48.1 76 -46 -46 опасность
обморожения
1033.6 997.6 -44.6
15 17.12 штиль 0 50 км ясно -46.3 -48.1 82 -46 -46 опасность
обморожения
1032.0 996.1
18 17.12 н/о -47.4 1030.4 994.7
21 17.12 штиль 0 50 км ясно -44.1 -46.4 78 -44 -44 опасность
обморожения
1028.9 993.4
00 18.12 штиль 0 50 км ясно -43.3 -45.7 77 -43 -43 опасность
обморожения
1027.6 992.3 -46.3 43
03 18.12 штиль 0 50 км 6/0
[Cs]
-42.4 -44.4 81 -42 -42 опасность
обморожения
1026.2 991.2
06 18.12 штиль 0 50 км 10/0
[Cc]
-41.4 -43.8 77 -41 -41 опасность
обморожения
1025.2 990.3

 

Местоположение метеостанции Шелагонцы (Якутия, Россия): широта 66.25 долгота 114.20 высота над уровнем моря 236 м.

В архиве по умолчанию представлена погода в Шелагонцах за последнюю неделю. Архивные данные за месяц целиком и за предыдущие месяцы, начиная с января 2011 года, Вы можете получить, выбрав интересующий диапазон дат из раскрывающегося списка и нажав кнопку "Ввод!".

Внимание! Время в таблицах - всемирное. Для получения местного времени необходимо прибавить поправку, которая в Шелагонцах равна 9 ч.

Смотрите также архив погоды в соседних городах и на ближайших метеорологических станциях:

Погода в Полярном (Якутия, Россия) (96 км)
Погода в Эйке (Якутия, Россия) (146 км)
Погода в Хабардино (Якутия, Россия) (200 км)
Погода в Чумпуруке (Якутия, Россия) (257 км)
Погода в Оленеке (Якутия, Россия) (262 км)
Погода в Ярольине (Якутия, Россия) (269 км)
Погода в Сухане (Якутия, Россия) (316 км)
Погода в Чернышевском (Якутия, Россия) (368 км)
Погода в Нюрбе (Якутия, Россия) (383 км)
Погода в Жиганске (Якутия, Россия) (407 км)

Пояснения к столбцам:

Ветер - указаны скорость ветра в м/с - средняя за 10 мин, порывы в срок и между сроками (в фигурных скобках) и направление, откуда дует ветер: С - северный, СВ - северо-восточный, В - восточный, ЮВ - юго-восточный, Ю - южный, ЮЗ - юго-западный, З - западный, СЗ - северо-западный.
Видимость - горизонтальная дальность видимости в метрах или километрах. При видимости от 1 до 10 км при отсутствии осадков обычно наблюдается дымка, при ухудшении видимости до 1 км и менее - туман. В сухую погоду видимость может ухудшаться дымом, пылью или мглою.
Явления - указаны атмосферные явления, наблюдавшиеся в срок или в последний час перед сроком; фигурными скобками обозначены явления, наблюдавшиеся между сроками (за 1-3 часа до срока); квадратными скобками обозначены град или гололедные отложения с указанием их диаметра в мм.
Облачность - указаны через наклонную черту общая и нижняя облачность в баллах и высота нижней границы облаков в метрах; квадратными скобками обозначены формы облаков: Ci - перистые, Cs - перисто-слоистые, Cc - перисто-кучевые, Ac - высококучевые, As - высокослоистые, Sc - слоисто-кучевые, Ns - слоисто-дождевые, Cu - кучевые, Cb - кучево-дождевые. Подробнее классификацию облаков см. в Атласе облаков (PDF).
T - Температура воздуха - температура, измеренная на высоте 2 м над землей.
Td - Температура точки росы - температура, при понижении до которой содержащийся в воздухе водяной пар достигнет насыщения.
f - Относительная влажность воздуха - влажноcть воздуха, измеренная на высоте 2 м над землей.
Te - Эффективная температура - температура, которую ощущает одетый по сезону человек в тени. Характеристика душности погоды. При расчете учитывается влияние влажности воздуха и скорости ветра на теплоощущения человека.
Tes - Эффективная температура на солнце - температура, которую ощущает человек, с поправкой на солнечный нагрев. Характеристика знойности погоды. Зависит от высоты солнца над горизонтом, облачности и скорости ветра. Ночью, в пасмурную погоду, а также при ветре 12 м/с и более поправка равна нулю.
P - Атмосферное давление - приведенное к уровню моря атмосферное давление.
Po - Атмосферное давление - измеренное на уровне метеостанции атмосферное давление.
Tmin - Минимальная температура - минимум температуры воздуха на высоте 2 м над землей.
Tmax - Максимальная температура - максимум температуры воздуха на высоте 2 м над землей.
R - Количество осадков - Количество выпавших осадков за период времени, мм. При наведении курсора мыши на число - период времени, за который выпало указанное количество осадков.
R24 - Количество осадков - Количество выпавших осадков за 24 часа, мм.
S - Снежный покров - Высота снежного покрова, см. При наведении курсора мыши на число - состояние снежного покрова и степень покрытия местности в баллах.